THOR ABLESTAR DEB, 354

Orbit data source: Space-Track

THOR ABLESTAR DEB, 354 is space debris in LEO originally from a launch on Thu, 29 Jun 1961 UTC launched from the Air Force Eastern Test Range (AFETR). Debris objects in space refer to the collection of defunct objects orbiting the Earth. Examples of debris include non-operational satellites, rocket bodies, and fragments generated from explosions, collisions, or faulty payload assembly.

Loading next visibility...
Identifier
354, 1961-015DU
Orbit
LEO
Country
Flag of USUS
Related business
Manufacturer
Unknown
Mission
Spacecraft
Bus & Motor
Unknown
Mass
Unknown
Launch date (UTC)
1961-06-29 (65 years ago)
Launch vehicle
Unknown
Launch site
Air Force Eastern Test Range (AFETR)
Object type
Payload
Rocket body
Debris
Shape & HBR
Unknown shape, 0.2 m
Radar Cross Section
Medium (>0.1 m² and <1 m²)

Expand to show TLE details & history
Last TLE update: 7 hours ago

TLE from 7 hours ago
0 THOR ABLESTAR DEB
1   354U 61015DU  26177.74265367  .00000230  00000-0  43003-3 0  9996
2   354  67.0671  78.6101 0171648 301.9327  88.3787 13.49452877479164
Epoch: 2026-06-26T17:49Z
TLE epoch observation values (Epoch: 2026-06-26T17:49:25.277Z)
Latitude
29.52239°
Longitude
-89.82212°
Altitude
1,075.687 km
Speed
7.318 km/s
True Right ascension
06h 09m 35s
True Declination
29° 22' 53"
Sunlit
Object was in daylight at epoch
Visualization orbit readout
Latitude
Unknown
Longitude
Unknown
Altitude
Unknown
Speed
Unknown
Apparent Right ascension
Unknown
Apparent Declination
Unknown
Sunlit
N/A
Visualization observer readout
Local Sidereal Time
12:08:37
Azimuth
Unknown
Elevation
Unknown
Doppler factor
Unknown
Orbital elements
Apogee altitude
1,200.559 km
Perigee altitude
944.776 km
Semi-major axis
7,450.804 km
Eccentricity
0.01716
Inclination
67.0671°
RAAN
78.6101°
Arg. of periapsis
301.9327°
True anomaly
90.34566°
Mean anomaly
88.3787°
Eccentric anomaly
89.36211°
Mean motion
3.37473 °/min
Orbital period
106.68 mins
BSTAR
0.00043003

Documentation

Showing up to 5 results
|